Regional Weather Roundup
Issued by NWS Wakefield, VA

Home | Current Version | Previous Version | Graphics & Text | Print | Product List | Glossary On
Versions: 1 2 3 4 5 6 7 8 9 10 11 12 13 14 15 16 17 18 19 20 21 22 23 24 25 26 27 28 29 30 31 32 33 34 35 36 37 38 39 40 41 42 43 44 45 46 47 48 49 50
051
ASUS41 KAKQ 282315
RWRAKQ

REGIONAL WEATHER ROUNDUP
NATIONAL WEATHER SERVICE WAKEFIELD VA
700 PM EDT SUN MAY 28 2017

Note: "fair" indicates few or no clouds below 12,000 feet with no
significant weather and/or obstructions to visibility. * = Denotes
station may not report precipitation (e.g., rain,snow,etc.),
thunder or fog.

VAZ042-051-052>054-056-290000-
NORTHERN VIRGINIA

CITY           SKY/WX    TMP DP  RH WIND       PRES   REMARKS
WASH NATIONAL  CLOUDY    68  65  90 NE6       29.84S
DULLES         CLOUDY    66  63  90 NE5       29.84S
FORT BELVOIR   CLOUDY    68  63  84 CALM      29.83S
QUANTICO       CLOUDY    69  67  93 NE6       29.84R
FREDERICKSBRG* CLOUDY    69  69 100 NE3       29.82S
STAFFORD*      CLOUDY    67  67  99 CALM      29.87S
WARRENTON      CLOUDY    68  63  84 CALM      29.83S
CULPEPER*      LGT RAIN  68  67  94 CALM      29.84F
MANASSAS*      CLOUDY    68  64  87 E5        29.84R
LEESBURG*      CLOUDY    68  64  88 E3        29.85S
WINCHESTER     CLOUDY    64  63  94 E5        29.84R
FRONT ROYAL*   CLOUDY    68  64  88 CALM      29.82F
LURAY*         LGT RAIN  68  64  88 NE3       29.83S
$$

VAZ048-049-060>072-079>083-290000-
CENTRAL AND SOUTH CENTRAL VIRGINIA

CITY           SKY/WX    TMP DP  RH WIND       PRES   REMARKS
RICHMOND       CLOUDY    76  69  79 NE5       29.80S
CHESTERFIELD*  NOT AVBL
PETERSBURG*    CLOUDY    75  67  75 CALM      29.81S
HANOVER        CLOUDY    73  67  81 CALM      29.82R
TAPPAHANNOCK*  CLOUDY    71  71  99 NE3       29.82S
QUINTON*       CLOUDY    73  71  95 E5        29.80S
CHARLOTTSVILLE RAIN      69  66  90 N3        29.83S FOG
GORDONSVILLE*  CLOUDY    67  66  97 CALM      29.83S
ORANGE*        LGT RAIN  64  64 100 CALM      29.83S
LOUISA*        CLOUDY    72  70  94 CALM      29.82S
BUMPASS*       CLOUDY    69  69 100 CALM      29.82S
FARMVILLE*     LGT RAIN  72  64  75 CALM      29.81S
CREWE*         CLOUDY    72  68  87 N3        29.81F
FORT PICKETT*  MOCLDY    74  70  88 N5        29.81F
CHASE CITY*    FAIR      77  69  77 N6        29.80F
CLARKSVILLE*   FAIR      79  70  73 CALM      29.80S
SOUTH HILL*    MOSUNNY   79  70  73 CALM      29.86S
LAWRENCEVILLE* MOCLDY    76  69  77 CALM      29.80S
EMPORIA*       CLOUDY    77  70  78 CALM      29.81S
$$

VAZ088>098-290000-
SOUTHEAST VIRGINIA

CITY           SKY/WX    TMP DP  RH WIND       PRES   REMARKS
NORFOLK        PTSUNNY   70  65  84 N7        29.80S
VIRGINIA BEACH CLOUDY    69  63  81 CALM      29.79R
NORFOLK NAVAL  NOT AVBL
WEST POINT*    PTSUNNY   72  67  82 N3        29.82R
SALUDA*        MOCLDY    69  67  93 CALM      29.81S
NEWPORT NEWS   CLOUDY    70  66  87 NE5       29.81S
LANGLEY AFB    SUNNY     70  66  86 N3        29.80R
FORT EUSTIS    CLOUDY    73  67  80 E5        29.79R
WILLIAMSBURG*  CLOUDY    73  70  88 CALM      29.82R
HR EXEC AP*    FAIR      72  66  83 NE3       29.78S
FRANKLIN*      CLOUDY    74  69  83 NE5       29.80S
US460-WAKEFLD  MOSUNNY   75  69  81 NE3       29.80S
$$

VAZ020-022-025-037-045-290000-
WEST CENTRAL AND SOUTHWEST VIRGINIA

CITY           SKY/WX    TMP DP  RH WIND       PRES   REMARKS
STAUNTON*      LGT RAIN  66  64  94 CALM      29.85F
WAYNESBORO*    CLOUDY    64  64 100 NW6       29.85S VSB 1/2
HOT SPRINGS VA CLOUDY    64  52  63 W7        29.93S
LYNCHBURG      CLOUDY    69  67  93 CALM      29.83S
DANVILLE       CLOUDY    79  70  74 VRB3      29.80S
SOUTH BOSTON*  FAIR      80  66  62 SW3       29.80R
MARTINSVILLE   CLOUDY    77  63  60 CALM      29.83F
ROANOKE        CLOUDY    77  63  61 SW7       29.83F
BLACKSBURG     CLOUDY    71  61  70 W3        29.90F
DUBLIN*        CLOUDY    73  56  56 W9        29.90R
MARION*        CLOUDY    69  61  76 CALM      29.95R
HILLSVILLE*    CLOUDY    70  55  58 CALM      29.91R
RICHLANDS*     CLOUDY    67  62  83 SW6       29.94S
WISE*          PTSUNNY   70  59  68 CALM      29.95S
ABINGDON*      CLOUDY    71  62  72 W10       29.93R
$$

MDZ021>025-VAZ099-100-290000-
SOUTHERN MARYLAND AND THE DELMARVA PENINSULA

CITY           SKY/WX    TMP DP  RH WIND       PRES   REMARKS
PATUXENT RIVER CLOUDY    69  69 100 E3        29.81F
BAY BRIDGE APT CLOUDY    64  64 100 E8        29.84S FOG
LEONARDTOWN    CLOUDY    68  64  88 CALM      29.83S
DOVER          CLOUDY    63  63 100 E12       29.85S
GEORGETOWN     LGT RAIN  63  61  93 E10       29.84F
EASTON         DRIZZLE   66  64  94 E7        29.87S FOG
CAMBRIDGE      CLOUDY    66  64  94 NE10      29.82F
SALISBURY      CLOUDY    65  65 100 E7        29.82S
OCEAN CITY     LGT RAIN  63  61  93 E8        29.83F
WALLOPS ISLAND RAIN      65  65 100 E8        29.81F FOG
ACCOMACK*      CLOUDY    66  32  28 NE3       29.80R
$$

NCZ012>017-030>032-290000-
NORTH CENTRAL AND EASTERN NORTH CAROLINA

CITY           SKY/WX    TMP DP  RH WIND       PRES   REMARKS
ROANOKE RAPIDS MOCLDY    79  68  69 W3        29.79S
RALEIGH        PTSUNNY   81  66  60 W6        29.82R
ELIZABETH CITY CLOUDY    77  74  90 N7        29.79R
AHOSKIE*       NOT AVBL
EDENTON*       CLOUDY    82  75  80 CALM      29.80R
CURRITUCK*     CLOUDY    74  74 100 N6        29.80R
KILL DEVIL HLS CLOUDY    76  73  87 CALM      29.77R
MANTEO         CLOUDY    79  69  72 NW6       29.79R
CAPE HATTERAS  MOSUNNY   78  72  81 SW15G23   29.80R
TARBORO*       NOT AVBL
GOLDSBORO      PTSUNNY   88  64  45 SW12      29.78S
WASHINGTON     CLOUDY    84  66  53 W5        29.79S
GREENVILLE     CLOUDY    86  68  54 CALM      29.82S
NEW BERN       CLOUDY    87  66  49 SW6       29.81R
WILMINGTON     MOSUNNY   85  72  65 S9        29.83S
$$

VAZ048-290000-
ELSEWHERE

CITY           SKY/WX    TMP DP  RH WIND       PRES   REMARKS
HARRISBURG PA  CLOUDY    67  62  84 SE8       29.85S
BALTIMORE      LGT RAIN  66  65  96 E12       29.84R
ANNAPOLIS      CLOUDY    67  66  97 NE3       29.83S
ANDREWS AFB    CLOUDY    66  64  94 NE5       29.83R
PHILADELPHIA   CLOUDY    67  56  67 E10       29.89R
HENDERSON NC   MOSUNNY   78  65  65 SW3       29.81R
GREENSBORO     PTSUNNY   78  66  66 SW7       29.83S
ROCKY MOUNT    CLOUDY    84  66  54 W5        29.80R
$$

VAZ100-290000-
MARINE

STATION/POSITION TIME  TEMP    WIND        PRES    WAVE   SWELL
                       AIR SEA DIR/SP/G            HT/PER HT/PER
                 (UTC) (F)     (DEG/KT/KT) (MB)    (FT/S) (FT/S)
CAPE MAY NJ      2242   62 63   80/ 10/ 16 1010.5F
LEWES DE         2242   62 65  120/ 11/ 14 1010.3F
15NM E FENWICK I 2250   61 59   70/ 16/ 17 1010.3F   3/ 4   2/ 7
WACHAPREAGUE VA  2242   65 72   50/  7/  8 1008.7R
THOMAS POINT MD  2300   65 65   60/  8/  9   N/A
GOOSES REEF MD   2250   68      70/ 10/ 12 1010.6R
COVE POINT MD    2242   68     110/  5/  6 1010.3F
SOLOMONS ISLAND  2242   68 69   30/  4/  5   N/A
BISHOPS HEAD MD  2242   68 71   70/  8/ 11 1009.8F
PINEY POINT MD   2236           80/  4/  5   N/A
POTOMAC MD       2250   68      80/ 10/ 12 1008.5F
CAMBRIDGE MD     2242   67 71                N/A
LEWISETTA VA     2242   68 71   90/  8/  9 1009.4F
RAPPAHANNOCK LGT 2236           10/  6/  6 1009.7R
STINGRAY PT      2250   68      20/  4/  4 1009.5R
YORK RVR RNG VA  2242   69      80/  3/  3 1008.7R
YORKTOWN VA      2242   69 70   CALM  /  1 1009.2R
JAMESTOWN VA     2250   72     110/  6/  8   N/A
DOMINION TERM VA 2242   71      CALM  /  2 1009.3R
KIPTOPEKE VA     2236      68   70/  6/  9   N/A
CHES BAY BRIDGE  2242   67 69   70/  4/  4 1009.0R
CAPE HENRY VA    2242   66      20/  4/  5   N/A
WILLOUBY STN VA  2242   69      30/  3/  3 1009.1R
S CRANEY ISL VA  2242   70     350/  5/  7 1008.9R
CAPE HENRY BUOY  2242      66                N/A     2/ 7
1ST LANDING BUOY 2250   68                 1009.3R
CAPE CHARLES BUO 2251      64                N/A     2/ 7
64NM E OF VA BCH 2250   68 66  200/ 10/ 12 1008.5S   3/ 7   2/ 7
DUCK PIER NC     2242   72 66   CALM  /  2 1008.0R
44100 DUCK FRF   2235      67                N/A     2/ 7
44056 DUCK FRF   2230      69                N/A     2/ 3
OREGON INLET NC  2242   78 74  200/ 18/ 23 1007.7R
HATTERAS NC      2242   78 75  210/ 14/ 20 1008.9R
DIAMOND SHLS NC  2250   78 76  220/ 21/ 25 1009.2R   4/ 6   2/ 9
CAPE LOOKOUT NC  2300   78     230/ 14/ 18 1009.7R
$$




USA.gov is the U.S. government's official web portal to all federal, state and local government web resources and services.